Wind_Speed
8 7 6 6 6 6 6 7 7 6 6 5 4 2 2 4 6 8 9 11 11 10 10 9 9 8 7 7 7 6 6 7 7 7 14 12 8 11 11 11 13 11 9 9 9 9 10 12 12 12 12 12 13 14 14 14 15 11 7 7 6 7 8 9 8 4 2 7 9 7 10 7 9 13 6 6 5 7 7 7 11 10 17 21 24 25 23 22
8 6 5 5 5 5 6 6 6 6 6 5 4 2 1 3 5 7 9 10 10 10 10 9 8 7 7 7 6 7 8 7 8 11 16 16 13 13 13 13 15 15 11 9 10 11 11 12 12 12 13 14 14 14 13 14 15 11 6 6 8 9 9 10 7 8 5 6 7 6 8 8 8 14 9 7 10 8 8 8 11 12 18 19 21 22 20 21
7 6 4 4 4 5 5 6 6 6 6 5 4 3 1 2 4 5 7 9 9 9 8 8 7 7 7 6 7 8 7 6 12 16 16 17 17 16 16 17 17 15 12 11 10 11 11 11 10 12 14 13 14 14 14 12 12 12 8 6 9 9 11 11 3 8 9 5 4 5 6 7 10 13 9 9 13 9 7 9 13 14 17 18 20 21 19 21
7 5 3 3 4 4 5 5 5 5 5 4 4 3 1 1 3 5 6 7 7 8 7 7 6 6 6 6 7 6 5 9 11 11 13 16 16 16 15 12 11 10 12 12 9 11 12 12 11 12 14 13 14 14 13 11 10 10 9 9 9 6 10 6 2 2 3 6 3 4 4 6 11 11 9 10 11 9 10 14 16 17 19 20 21 20 19 20
6 5 3 2 3 4 4 4 5 5 5 4 3 2 2 0 2 3 5 5 6 6 6 6 5 5 6 6 6 4 4 5 2 10 12 11 12 11 8 7 8 9 12 9 8 11 10 13 12 13 13 11 12 11 11 12 11 8 10 15 14 8 7 3 1 1 2 3 1 4 4 4 8 7 8 10 10 4 2 8 17 17 21 22 21 20 18 19
6 4 2 1 2 3 3 4 4 4 4 4 3 2 1 1 2 3 4 4 5 5 5 5 5 6 6 6 4 4 5 2 5 9 8 5 6 7 8 8 6 7 11 8 10 10 9 11 11 13 12 10 11 10 10 13 13 8 8 15 15 10 6 5 3 2 1 6 5 3 6 6 7 6 6 10 6 11 13 8 8 12 20 21 20 20 18 18
5 4 2 1 2 2 3 3 3 4 3 3 3 2 1 2 2 3 3 4 4 4 5 4 5 6 6 6 4 6 11 9 5 10 7 4 4 8 7 6 6 6 8 7 10 10 10 11 11 12 11 9 12 11 12 13 13 10 7 10 10 9 6 3 4 2 4 10 7 1 5 5 7 6 8 12 6 13 11 10 10 11 19 19 18 18 17 18
5 4 3 2 1 2 2 2 3 3 3 3 3 2 1 1 2 3 3 4 4 5 5 5 6 6 6 7 4 9 14 12 10 8 5 4 7 9 7 6 6 6 6 8 10 9 9 11 12 12 10 10 10 11 13 12 12 11 9 9 5 6 6 2 2 2 5 8 4 0 3 4 6 6 6 12 10 11 11 8 8 11 16 16 16 17 17 17
5 4 4 3 2 2 2 2 2 2 3 2 2 1 1 1 2 3 4 4 5 5 5 5 6 6 6 6 5 9 6 8 9 5 2 7 9 9 8 6 5 6 7 9 8 10 10 10 13 12 12 11 9 9 9 8 8 8 12 13 3 4 7 3 4 5 5 7 6 3 6 9 9 5 2 10 12 6 9 7 7 11 15 15 15 17 17 18
5 5 4 4 3 2 2 3 3 3 3 3 2 1 0 1 2 3 4 4 5 5 5 6 6 5 5 4 7 7 6 9 5 2 5 9 8 7 6 5 6 7 9 9 7 11 12 10 10 9 12 13 11 9 7 8 6 5 12 13 3 5 9 6 7 8 7 8 8 6 8 12 12 7 4 11 14 6 9 9 9 10 13 14 14 16 17 17
5 5 5 5 4 4 4 4 4 4 4 4 3 1 0 1 3 4 4 5 5 5 6 7 6 6 4 5 11 6 7 7 5 7 8 7 8 9 6 6 8 9 9 8 8 10 10 9 9 10 8 6 8 9 9 9 6 6 9 8 5 7 7 7 9 10 8 8 9 8 10 12 13 9 9 16 18 11 10 9 11 11 11 13 14 15 16 18
5 5 6 6 6 6 6 6 6 5 5 5 4 2 1 1 3 5 5 5 5 6 7 7 6 5 4 8 15 7 4 5 7 7 8 7 9 9 6 6 7 8 9 8 9 8 9 9 9 12 8 5 8 7 6 9 6 8 8 6 8 9 7 10 12 10 8 8 10 8 8 10 12 11 13 17 13 11 11 9 11 12 12 13 15 15 16 18
6 6 6 7 7 7 7 7 7 6 6 5 5 3 2 1 4 6 6 6 6 7 7 7 6 4 5 9 11 6 3 4 7 7 8 8 9 8 7 7 7 8 9 9 8 5 6 8 9 13 11 9 8 4 1 7 6 10 9 6 9 8 9 14 14 13 11 7 9 6 5 8 11 15 20 16 11 12 10 10 11 13 13 14 15 15 16 18
6 6 7 7 8 8 9 9 8 7 6 5 4 3 2 1 3 6 6 6 7 8 8 8 6 5 7 8 4 6 6 5 7 8 8 9 9 9 9 8 8 8 8 9 9 6 7 9 10 12 13 13 8 6 3 7 6 8 9 7 8 6 8 14 16 14 11 8 10 7 5 7 11 17 24 19 15 13 11 11 12 13 13 14 16 15 16 18
5 6 7 8 9 10 10 10 10 7 6 6 5 4 3 3 4 6 6 6 7 7 7 7 7 5 8 10 5 6 7 7 9 10 9 9 10 10 10 9 9 8 7 8 8 8 8 8 10 11 11 12 9 6 6 7 6 7 7 7 7 6 9 11 17 15 10 10 12 9 5 7 14 15 17 21 16 14 12 12 13 13 14 14 16 15 15 18
4 5 6 7 8 9 10 10 10 8 6 6 6 4 4 6 5 5 6 6 6 6 7 5 4 5 8 5 4 3 5 8 8 9 9 9 10 10 9 8 8 8 7 8 7 7 7 9 11 12 11 8 6 7 6 6 7 6 6 7 7 8 8 5 14 16 14 11 12 12 6 7 9 1 17 18 14 13 12 13 14 14 15 14 16 15 15 18
4 4 5 6 7 8 9 10 10 9 6 5 5 4 3 4 4 3 4 6 6 7 8 4 2 7 10 5 4 5 7 7 5 7 8 9 10 9 7 8 8 8 8 7 7 7 8 9 9 9 9 6 5 7 6 6 7 6 7 7 8 10 8 5 12 16 16 11 10 11 7 10 10 5 18 13 11 12 11 12 14 14 14 15 14 15 15 17
2 3 4 5 6 7 7 9 10 10 8 6 5 4 1 0 1 2 2 5 5 7 7 6 4 7 10 10 8 7 7 6 5 6 7 9 10 8 7 10 8 8 9 7 8 10 9 9 8 6 6 6 5 5 7 7 5 4 5 5 7 10 11 8 4 10 14 11 8 8 8 11 13 6 14 15 12 12 12 12 14 15 15 15 14 14 16 16
2 1 2 4 5 5 6 7 9 9 9 7 6 4 2 2 3 3 3 5 5 6 3 7 13 4 1 8 6 5 5 5 6 6 8 9 9 8 9 10 8 9 10 6 8 11 8 7 7 6 6 7 8 9 8 5 7 9 7 5 6 8 10 6 3 9 9 8 7 8 9 10 11 12 9 15 16 13 13 13 13 15 16 16 16 16 16 16
3 1 1 2 4 4 4 5 6 7 6 7 10 6 3 3 4 3 5 10 13 12 7 7 19 10 2 7 5 4 5 6 7 7 8 9 9 9 10 9 9 9 9 7 7 9 8 6 6 7 6 2 4 9 4 5 8 10 9 8 9 7 6 2 8 8 3 3 7 7 9 11 10 12 13 11 18 14 14 14 14 14 15 17 17 18 17 16
4 3 2 2 3 3 4 4 4 6 5 6 10 7 5 7 4 3 1 10 17 16 11 6 13 11 5 4 4 4 5 7 8 7 8 9 10 9 10 10 10 7 8 11 6 3 5 6 7 10 5 5 7 4 3 6 7 8 8 8 8 6 7 5 6 8 4 2 5 7 9 13 13 13 14 12 14 15 16 15 15 16 15 16 17 17 18 17
5 4 4 3 3 3 4 4 3 3 2 4 8 7 7 9 7 7 6 10 13 11 9 7 8 10 4 2 3 4 7 9 10 9 8 9 11 10 10 11 9 7 8 11 6 2 5 8 12 10 2 3 4 6 6 6 7 8 7 7 8 6 9 7 7 8 5 3 4 7 9 12 14 15 15 15 13 14 21 20 17 17 17 17 18 17 17 16
5 4 4 4 4 4 5 5 4 3 2 5 7 6 7 8 7 8 8 11 9 8 9 8 8 10 9 7 6 7 11 12 9 13 12 8 12 13 10 9 9 9 9 10 7 6 6 6 8 4 2 2 2 2 4 5 4 6 6 7 8 8 10 7 3 4 3 2 4 6 8 9 11 14 14 16 17 13 19 24 21 20 19 19 18 18 17 17
5 5 5 4 5 5 5 5 3 2 3 6 6 5 7 8 8 9 7 10 7 6 7 6 7 8 7 5 6 9 12 11 5 10 13 8 11 12 10 9 9 8 10 10 9 9 10 3 4 5 2 5 5 2 3 4 4 7 8 9 9 9 10 7 1 2 3 3 5 7 7 8 10 13 12 12 14 14 15 19 21 22 22 21 20 19 19 19
6 5 4 4 4 3 3 4 3 3 4 5 3 5 8 8 8 8 4 7 6 5 4 6 7 5 4 4 6 9 10 8 4 6 11 9 11 8 8 10 8 7 11 12 10 10 10 2 7 5 4 4 6 5 5 4 5 7 9 11 12 12 11 8 5 3 4 5 7 8 6 6 10 13 12 10 11 14 16 16 17 21 23 23 22 22 21 19
7 5 4 4 3 1 3 4 3 6 7 3 5 7 8 8 8 6 3 4 2 3 4 7 7 4 5 7 9 10 9 8 7 6 6 9 10 8 7 8 7 9 11 9 8 7 4 7 5 6 6 6 7 7 7 8 7 6 8 10 12 12 9 8 10 6 4 7 4 9 5 6 8 8 10 11 11 13 15 15 17 20 21 22 23 23 21 19
7 5 4 4 2 2 5 4 3 7 7 4 6 8 7 8 7 5 3 3 2 3 4 7 5 2 3 5 10 10 3 3 7 6 5 7 10 8 7 8 6 8 9 5 6 4 4 9 7 5 7 6 7 7 8 10 9 4 2 7 9 10 8 8 10 7 6 8 3 10 8 6 6 9 8 9 12 13 13 13 15 17 19 21 21 20 20 21
6 5 3 4 3 3 4 4 4 8 9 7 8 7 6 8 6 4 4 1 2 2 2 5 3 2 4 5 9 10 3 2 5 6 7 6 9 10 8 11 10 8 7 7 6 1 2 4 6 5 7 6 7 9 9 10 10 6 1 5 10 8 6 7 9 8 7 8 6 9 9 6 6 8 11 11 11 11 11 12 12 14 16 18 18 17 19 20
5 4 3 4 4 4 4 1 3 8 8 8 8 6 5 5 4 3 5 1 1 3 1 3 4 5 8 7 9 9 6 7 5 3 7 6 9 11 8 9 11 11 9 7 6 3 3 5 6 7 7 6 9 11 12 12 8 4 2 4 8 7 6 7 8 7 7 8 8 10 10 6 6 7 8 11 9 9 10 11 11 13 15 15 16 17 17 18
4 4 3 3 4 5 4 3 3 7 8 9 7 4 4 3 2 3 4 2 1 3 2 2 3 6 9 9 9 8 7 8 6 4 6 6 8 12 11 9 8 10 9 5 6 8 8 5 5 7 8 8 12 11 9 8 6 0 2 5 7 7 7 7 6 6 7 8 10 13 13 9 7 6 7 7 6 9 9 8 9 12 15 15 15 17 17 17
4 4 4 3 3 3 3 3 3 6 9 8 5 3 4 3 3 3 2 2 2 2 2 4 2 3 8 8 6 7 7 9 8 7 6 5 7 10 9 8 5 5 6 6 7 11 11 7 5 7 10 11 12 10 5 4 5 4 4 6 6 6 7 6 6 6 6 7 9 13 14 12 8 6 7 7 2 8 6 3 7 10 14 16 16 17 17 17
4 4 4 4 3 3 3 5 5 7 9 8 6 4 5 4 4 4 1 2 3 1 1 3 3 3 7 7 5 7 7 6 6 7 7 7 7 7 7 6 5 4 6 5 6 8 10 10 8 9 11 12 10 8 6 6 7 6 6 6 6 6 6 6 7 6 7 9 10 12 12 10 8 7 9 11 5 6 5 2 4 7 11 17 17 17 17 17
4 3 4 4 2 1 3 5 5 8 9 9 8 7 6 5 4 3 2 2 0 2 2 4 4 6 7 7 7 8 6 4 6 7 7 7 7 7 9 8 7 8 5 2 4 5 6 8 10 9 9 12 11 8 6 7 7 7 7 6 6 6 5 7 7 6 8 7 7 9 10 7 7 6 9 13 12 8 8 9 8 12 10 14 17 16 16 16
3 4 4 4 4 4 4 6 7 8 9 9 8 7 5 6 5 3 4 4 3 1 5 4 4 7 8 8 10 8 5 6 8 8 6 7 7 6 6 8 10 10 7 4 4 5 7 6 7 8 5 10 11 9 8 8 6 8 9 8 7 6 6 7 6 6 7 5 5 6 5 4 4 3 5 10 12 11 13 12 12 11 12 10 14 15 15 17
5 6 6 6 5 5 7 8 9 10 11 10 8 6 5 5 4 3 4 6 5 5 8 8 7 10 9 9 12 7 2 4 7 7 7 7 7 7 6 8 10 9 7 5 4 5 9 7 5 8 9 9 10 10 10 11 9 7 7 8 7 6 7 7 6 7 8 7 7 6 4 3 4 5 7 11 11 11 13 12 9 11 11 10 10 12 13 15
8 8 7 6 4 7 8 7 9 11 12 10 7 5 5 4 5 4 5 6 8 9 10 10 9 9 8 7 7 4 5 2 8 6 6 8 9 10 9 7 7 8 6 5 5 4 7 7 6 8 10 8 8 9 11 11 7 5 6 8 7 7 8 6 6 7 7 8 7 5 5 6 7 7 9 13 13 12 12 12 11 11 11 10 9 10 12 13
6 5 4 4 4 7 8 7 8 9 10 9 5 5 6 5 5 6 7 8 10 10 9 8 6 7 8 5 5 4 3 4 7 7 6 7 8 8 10 6 3 6 7 5 5 5 6 7 8 10 11 8 9 12 13 14 11 7 7 7 7 8 8 5 5 6 6 8 6 6 7 7 7 6 7 12 13 12 12 12 11 10 10 12 13 13 13 14
4 4 4 1 5 8 8 8 8 8 9 7 6 7 7 5 4 6 8 9 10 10 8 6 5 7 8 6 6 9 5 3 5 6 6 6 4 6 8 4 1 4 6 6 5 3 5 7 8 10 12 10 11 12 12 14 15 11 10 9 6 7 7 5 5 5 7 7 6 8 10 9 8 7 7 10 11 9 10 9 7 8 8 10 13 16 15 13
2 5 4 1 6 9 8 6 6 8 8 6 6 4 4 6 4 6 7 8 9 9 7 7 7 6 7 7 7 9 9 7 7 6 5 5 3 2 3 2 1 4 5 6 6 4 4 6 6 8 10 10 8 8 8 9 10 11 12 10 7 6 7 6 6 5 7 7 7 8 9 8 7 8 9 11 10 8 8 7 6 8 10 10 11 13 14 15
6 7 2 2 9 11 7 5 6 8 6 5 6 4 4 6 6 6 5 5 7 7 6 8 9 7 7 9 8 8 8 8 9 8 6 6 5 4 4 1 1 4 5 7 7 4 4 6 6 7 9 9 6 6 8 9 8 8 8 8 7 6 5 5 6 7 7 7 7 7 8 7 5 5 8 10 8 7 7 6 5 8 10 12 15 13 12 15
9 8 1 7 12 11 7 6 6 6 4 5 5 4 4 5 8 11 7 2 3 6 7 8 8 8 8 9 9 8 7 8 9 8 6 7 7 4 2 5 4 4 5 7 6 3 3 5 6 7 7 8 9 9 12 13 11 9 7 7 8 6 5 4 5 6 6 6 7 7 7 7 6 5 7 9 8 8 10 9 9 10 8 8 15 16 13 16
9 4 3 9 13 11 8 7 6 4 4 4 4 5 5 4 7 11 8 5 6 6 7 7 7 7 7 8 8 8 8 7 8 7 7 8 8 2 4 5 4 3 3 7 4 5 5 4 6 8 8 10 14 15 16 17 17 13 10 9 9 7 6 6 6 6 5 7 9 8 8 8 7 6 6 7 8 8 10 11 12 14 12 12 15 15 11 11
9 5 5 10 13 11 7 6 5 5 4 3 5 7 8 5 7 8 7 7 7 6 6 5 7 7 7 8 8 9 9 7 8 8 8 11 7 4 5 4 4 3 3 6 3 6 5 4 6 8 9 10 15 16 16 17 16 13 10 10 10 8 6 6 7 7 6 8 8 7 8 8 5 5 6 7 9 10 11 12 12 14 15 14 16 18 18 17
12 8 5 5 10 11 7 5 5 5 6 7 6 8 9 8 7 7 7 7 6 5 6 5 7 8 7 8 8 9 9 6 7 9 8 10 4 5 3 2 3 3 2 3 4 6 4 4 5 7 7 7 9 9 9 10 8 6 6 8 8 8 9 9 7 7 6 9 10 8 8 8 6 7 8 9 12 12 12 14 14 15 17 15 15 17 19 20
13 7 4 7 11 11 6 4 6 5 6 9 8 8 10 9 7 5 6 8 9 8 7 6 8 9 8 9 8 9 10 7 7 8 8 9 6 4 5 3 3 0 7 10 6 6 4 5 5 6 7 7 7 5 5 5 5 5 8 9 10 10 12 10 7 7 7 10 11 8 7 8 10 13 13 11 12 12 13 16 17 18 20 20 19 19 19 17
10 4 5 11 14 11 5 3 5 5 6 7 6 8 9 8 8 5 3 5 9 8 8 7 8 10 9 9 9 9 10 10 9 9 9 9 8 10 10 7 9 7 12 11 4 5 4 6 7 10 10 10 11 11 11 12 10 10 13 14 14 14 14 11 7 7 8 9 10 9 9 11 13 16 15 13 12 12 13 15 18 20 22 24 23 22 22 19
8 5 5 8 9 7 5 6 6 5 7 7 4 7 8 8 10 5 3 2 6 5 6 7 8 9 8 8 8 8 10 12 12 11 12 11 10 11 13 14 12 8 11 6 1 1 3 6 9 13 15 16 17 18 18 16 15 15 16 18 18 17 16 12 9 10 10 9 10 10 10 10 13 17 18 17 15 13 13 15 19 21 22 24 24 23 25 25
7 7 5 4 4 6 7 9 10 9 12 11 6 7 8 8 10 7 3 6 8 5 5 6 8 9 10 9 8 7 9 10 10 10 11 11 11 11 11 15 15 8 6 8 6 5 5 7 9 13 16 19 19 19 18 16 15 16 17 19 20 19 18 14 12 14 13 10 10 12 14 12 12 18 21 19 16 15 17 20 22 24 25 25 25 24 25 27
9 8 5 5 7 11 11 10 11 11 11 9 6 6 9 9 9 9 9 8 8 7 6 7 9 10 11 11 10 7 8 8 8 9 10 10 11 10 8 10 12 12 13 11 8 6 5 6 10 13 16 19 19 17 18 17 16 17 19 22 22 20 18 15 15 17 16 15 15 15 17 15 13 17 19 20 21 22 23 24 25 25 25 24 23 24 25 27
10 7 7 9 11 13 13 10 9 9 8 6 6 6 8 9 7 8 10 9 7 7 7 9 11 12 12 12 10 9 8 7 8 9 9 8 8 8 8 8 9 11 12 10 8 7 6 7 10 12 12 16 17 16 17 17 16 17 21 24 22 19 17 16 15 13 13 14 14 13 13 13 12 13 16 21 26 25 23 24 23 22 22 23 23 24 25 26
8 6 7 9 9 9 11 10 8 7 6 5 5 6 5 6 8 8 8 9 10 10 9 10 11 11 11 13 12 9 7 12 12 12 11 8 8 9 9 9 10 11 10 9 8 7 7 7 9 9 10 13 13 14 17 17 16 20 22 20 16 15 14 13 12 10 10 11 12 11 10 10 11 13 16 21 23 22 20 20 20 20 22 23 22 24 25 24
8 6 7 8 8 8 9 9 8 7 5 3 5 7 7 8 11 11 8 7 10 11 9 9 9 7 8 11 13 11 8 11 13 15 14 13 14 16 16 18 18 15 11 9 8 8 8 8 8 8 9 12 13 14 15 14 13 15 13 9 10 12 13 13 13 14 14 11 10 10 9 10 13 14 16 17 17 18 19 19 20 21 25 25 24 26 27 26
Wind_Direction
345 347 351 353 356 360 1 359 355 355 350 346 339 312 248 220 210 203 202 203 203 202 206 208 212 220 227 236 248 250 262 249 216 234 254 246 232 239 243 241 246 264 265 230 210 224 232 230 232 232 232 230 234 237 238 233 231 231 229 242 250 248 245 253 265 264 256 99 109 153 172 197 164 179 167 129 172 125 143 134 105 99 93 99 111 120 128 137
352 353 355 358 4 10 11 8 4 4 2 360 350 326 252 217 205 201 199 202 204 203 208 211 219 226 234 242 241 248 254 243 235 250 253 248 245 243 244 251 254 258 251 214 204 221 228 228 224 223 224 226 225 223 232 224 219 234 233 234 244 249 248 255 303 359 352 102 143 177 179 219 175 171 161 172 204 157 160 158 140 131 116 120 122 123 131 134
355 357 355 360 11 17 15 13 13 13 10 7 359 348 314 203 194 198 198 203 205 206 213 218 228 235 240 235 226 244 250 259 268 262 250 242 243 248 255 257 251 246 227 202 212 230 233 233 221 217 220 226 226 214 220 210 202 225 234 241 230 250 278 264 313 31 354 20 133 166 185 210 161 164 167 194 212 177 190 180 160 158 142 141 132 128 132 134
353 355 357 1 15 19 18 17 16 17 15 15 13 8 6 170 183 190 196 204 207 213 221 227 239 238 231 221 221 240 268 287 273 240 226 230 237 249 254 243 227 214 194 191 227 251 245 241 225 216 221 227 227 216 216 201 194 213 221 245 238 263 305 274 208 122 295 338 38 129 201 196 155 169 175 203 218 180 214 205 179 177 164 151 136 132 134 137
350 356 358 358 15 21 20 17 17 20 18 21 27 33 31 87 184 187 196 205 211 220 228 231 231 221 216 209 217 241 276 299 175 171 190 216 238 238 219 183 171 175 178 192 249 257 246 243 231 218 225 233 228 217 220 209 205 221 220 240 257 284 325 14 317 264 199 279 293 139 205 186 151 181 175 209 225 128 320 207 184 184 164 147 134 135 136 140
351 0 10 12 21 21 21 16 19 20 19 24 29 47 80 145 175 188 194 202 211 218 217 215 207 206 205 194 212 230 249 303 124 175 198 224 238 190 154 149 155 165 172 206 252 245 231 235 229 218 220 238 239 220 220 218 212 227 226 235 252 270 303 15 19 16 48 249 247 165 225 213 172 193 189 222 217 81 41 55 130 148 144 140 134 138 141 145
359 9 22 38 29 22 19 17 23 20 20 25 29 40 103 155 169 185 187 192 195 198 196 197 199 199 191 189 223 237 248 270 194 201 237 262 194 149 144 151 160 162 166 215 241 226 217 221 221 217 217 232 243 229 217 223 219 226 247 247 249 238 235 23 43 26 257 243 246 207 245 225 168 187 205 224 195 97 76 73 90 114 132 138 137 143 148 149
9 16 23 41 44 29 22 21 26 20 19 22 27 36 51 154 173 177 175 181 178 184 184 188 195 193 199 196 232 258 249 242 204 209 257 223 151 139 147 145 153 161 181 233 236 218 213 218 221 218 223 228 238 234 215 218 223 224 253 266 256 224 218 126 101 239 243 239 258 30 238 227 192 212 213 218 205 118 106 110 114 128 135 141 144 148 153 153
15 23 35 51 58 47 32 23 19 15 18 18 20 26 31 160 177 172 173 175 171 180 178 188 195 197 221 209 253 279 237 185 205 246 245 162 140 137 147 142 160 180 215 240 239 232 224 221 223 221 239 254 270 257 213 202 220 211 235 253 235 207 233 199 194 218 217 230 243 226 223 229 226 240 247 226 227 148 129 163 159 148 147 150 153 154 157 158
25 36 46 58 69 60 41 25 15 10 5 2 3 8 22 174 181 175 173 171 171 177 180 191 200 209 229 230 271 283 123 140 198 199 149 153 150 161 171 189 209 216 235 242 236 236 237 242 247 250 259 269 284 272 215 195 230 232 234 248 243 226 234 197 218 225 208 227 228 219 232 236 230 225 221 231 234 193 153 186 191 172 160 156 157 158 160 161
39 53 60 69 73 58 47 32 24 18 8 7 1 353 311 201 193 186 172 169 172 174 184 195 207 222 223 247 267 266 123 145 170 159 163 163 178 194 206 224 217 225 247 251 236 238 253 269 281 280 273 280 279 261 232 218 243 260 248 257 237 232 228 194 230 227 202 225 217 221 246 244 236 214 211 235 230 196 170 194 197 187 173 161 161 162 163 163
51 64 70 74 69 56 45 30 23 14 7 8 2 10 358 220 199 194 175 167 170 170 185 201 209 220 244 264 259 251 122 156 171 174 186 183 197 209 222 227 219 236 257 260 249 249 258 268 281 272 274 311 283 266 237 225 242 256 251 264 233 219 221 216 226 215 203 222 201 213 253 245 242 220 217 235 217 171 177 203 199 188 181 170 162 163 167 165
58 69 72 69 60 50 38 25 18 8 3 3 0 10 6 234 200 194 179 169 167 172 185 197 210 223 266 273 251 218 167 190 190 191 200 203 211 220 229 228 229 248 258 262 274 283 257 260 270 268 275 275 273 350 339 217 230 251 240 244 243 224 218 218 214 209 209 200 170 183 253 241 237 222 218 215 171 161 192 206 201 190 182 174 166 168 172 168
61 71 68 60 52 44 34 25 16 10 10 7 4 11 20 78 178 180 174 171 166 175 183 194 213 218 253 270 226 194 205 197 202 206 208 213 218 223 226 228 238 248 250 255 277 289 263 262 263 266 272 265 280 354 294 228 220 247 241 229 243 247 238 215 199 204 201 165 162 193 260 256 257 239 215 194 166 176 203 207 205 194 185 177 169 173 175 171
65 71 66 57 50 43 36 29 23 21 25 24 29 37 55 94 138 156 161 163 164 178 184 196 212 216 255 258 214 214 218 201 218 219 210 212 218 223 219 225 236 236 244 250 262 269 257 257 253 252 255 250 267 289 251 234 220 230 238 230 225 239 266 224 182 187 191 168 181 210 255 250 267 259 190 164 165 187 205 205 204 195 187 180 172 179 181 172
69 72 65 57 51 43 37 32 29 31 37 38 38 54 84 92 105 142 160 159 161 171 173 183 221 252 278 265 194 214 209 205 218 206 206 214 216 223 217 218 230 224 237 245 247 259 246 244 246 251 263 249 234 253 252 239 221 214 231 247 234 223 256 213 163 181 195 186 190 204 244 258 272 73 129 145 169 189 208 201 198 198 186 180 177 181 187 176
70 70 61 55 47 41 39 34 32 33 40 47 41 58 99 92 82 101 155 173 174 169 174 178 263 264 261 262 238 223 195 191 191 189 208 214 216 235 224 209 224 222 228 233 235 244 228 230 242 248 267 266 233 242 244 233 224 213 212 234 252 246 255 208 171 187 197 203 204 196 218 263 281 107 128 154 178 188 215 205 195 197 185 183 185 184 192 185
61 64 52 48 41 37 39 34 34 34 37 43 35 41 57 169 62 27 156 176 179 178 205 217 222 267 248 235 238 207 174 174 185 204 211 207 217 238 224 213 224 221 223 227 223 227 214 212 229 231 233 240 246 243 233 237 256 265 237 231 248 251 264 267 199 180 189 200 217 217 221 244 267 233 159 167 183 199 216 212 203 196 190 191 194 197 200 196
14 46 41 38 39 36 37 32 35 36 33 25 8 9 6 259 248 285 198 185 192 195 259 207 197 255 271 193 201 152 164 195 200 210 206 203 210 220 224 228 238 225 222 215 200 209 207 207 226 234 227 221 221 222 236 287 340 334 319 301 278 248 243 256 126 149 177 189 208 236 250 246 256 259 220 177 178 202 213 217 219 200 194 196 200 210 211 206
350 338 326 8 33 31 33 29 35 37 27 10 358 352 335 297 249 230 185 209 226 240 295 191 193 237 287 164 163 148 188 206 205 210 204 200 199 212 221 225 234 228 231 229 196 196 210 224 228 229 239 280 247 228 239 355 353 334 322 309 300 280 247 214 111 119 140 200 219 231 252 263 261 264 265 207 176 191 212 216 222 213 203 202 205 211 212 215
345 335 306 320 355 9 25 13 25 38 30 10 357 333 328 356 337 324 252 234 237 240 267 225 206 254 288 142 157 188 208 201 205 206 192 192 200 213 205 206 224 214 228 241 216 165 214 244 247 237 247 32 19 337 8 12 346 329 318 300 294 289 283 283 116 116 110 158 251 265 266 272 273 267 270 246 192 185 204 213 218 219 216 215 215 214 212 214
334 329 317 308 313 337 359 352 2 20 10 2 354 328 336 7 351 323 318 276 253 228 240 246 239 255 255 241 243 234 230 212 199 185 174 191 208 215 188 189 223 213 216 232 222 185 211 237 248 245 265 58 45 12 354 352 340 323 310 289 286 285 283 265 166 150 144 151 248 269 270 272 271 264 260 254 233 196 194 204 216 220 222 226 224 223 222 217
331 327 317 300 305 318 320 333 333 326 336 326 330 333 340 352 338 318 303 284 266 218 222 224 224 225 212 230 232 214 231 235 207 177 174 199 214 225 214 200 225 226 217 213 209 236 239 239 238 208 78 251 243 14 337 341 322 292 284 278 274 261 269 267 159 105 47 356 292 284 279 274 268 264 254 245 246 230 196 192 204 218 225 233 231 232 231 224
336 330 320 302 297 306 316 330 319 341 19 328 321 348 346 342 338 334 310 284 265 211 221 221 228 224 191 193 204 211 237 264 267 168 166 198 217 222 233 235 237 234 237 224 200 232 260 259 141 148 160 252 263 275 287 303 280 262 251 257 268 264 281 304 23 53 359 291 260 269 277 270 257 252 250 237 233 244 231 206 201 208 218 229 235 242 239 229
342 331 332 318 300 304 313 318 331 339 311 301 343 10 349 340 332 339 322 281 258 203 202 215 231 228 185 190 210 228 250 259 266 147 159 203 228 227 236 243 246 239 240 236 217 234 256 184 137 191 214 221 252 252 233 235 262 265 245 238 250 265 287 309 304 292 293 271 226 222 255 274 256 240 232 229 220 225 237 236 223 212 214 220 225 234 238 233
351 342 340 332 316 308 295 309 353 325 288 293 12 351 345 334 322 340 317 268 228 174 168 189 207 202 206 218 208 227 257 231 190 153 173 215 235 260 268 234 225 245 252 254 247 238 190 134 157 244 239 219 245 249 233 232 244 258 258 246 237 243 263 286 292 288 281 289 209 179 224 281 283 263 225 213 218 219 219 227 234 228 222 223 223 222 223 228
357 351 349 349 337 291 291 296 332 329 327 12 356 338 345 321 321 5 296 250 153 193 173 160 172 142 183 208 208 223 268 134 160 180 214 228 229 241 261 244 224 240 255 276 272 257 142 152 172 243 250 234 245 247 235 238 249 250 318 294 257 238 248 264 278 273 264 285 216 176 217 266 284 291 271 223 211 216 212 211 223 231 233 233 228 219 215 220
357 0 8 2 343 315 300 275 293 340 355 359 338 334 332 312 332 4 279 267 90 224 179 136 140 142 190 203 221 245 305 121 193 200 185 204 224 213 227 253 259 249 241 246 241 304 350 211 182 222 244 242 248 250 235 225 241 248 213 295 276 262 261 257 261 261 253 267 250 214 223 240 250 265 273 254 221 203 203 210 216 221 234 241 231 224 222 215
6 16 24 13 9 13 7 354 326 342 350 337 328 323 307 313 346 319 259 280 117 213 131 118 167 204 214 203 206 237 256 217 208 161 164 191 226 231 248 261 264 271 278 271 236 219 271 233 213 235 236 240 246 243 237 221 223 273 334 293 282 280 276 256 253 259 253 251 253 248 240 241 258 247 246 249 224 194 199 212 215 209 218 233 225 220 224 210
19 31 34 21 29 28 19 44 12 339 336 322 317 324 316 316 327 277 251 279 257 167 144 183 188 195 210 210 202 211 229 222 202 177 206 221 214 229 261 273 268 279 286 279 252 257 257 212 208 250 240 240 245 243 244 220 199 285 322 267 259 252 249 247 246 254 261 257 250 254 252 250 264 256 253 261 202 192 214 210 203 201 205 217 216 210 214 207
27 36 35 24 68 84 355 346 322 322 331 326 329 346 316 285 245 264 253 229 229 159 198 238 234 201 222 237 223 207 229 233 207 185 207 226 202 208 238 248 243 269 270 247 236 247 248 218 198 235 241 247 254 259 265 221 217 237 241 250 258 244 230 230 238 237 248 259 255 258 254 246 252 249 264 308 145 183 226 210 190 201 200 204 209 206 207 209
29 32 34 36 94 127 336 316 293 309 328 341 345 312 291 280 251 268 282 202 219 132 10 284 278 270 270 285 272 232 243 247 218 207 214 217 205 198 215 222 205 220 239 235 230 230 232 232 221 211 219 234 249 256 242 219 225 241 238 241 252 251 239 232 233 230 240 248 251 265 267 252 254 250 258 296 303 198 214 231 241 251 212 193 199 204 202 209
34 32 38 43 52 58 340 325 318 321 330 341 329 292 277 292 283 288 305 277 213 68 336 292 270 276 284 284 269 247 244 254 242 239 240 240 235 213 212 221 226 233 242 257 268 249 231 233 232 221 203 206 225 244 237 216 204 213 231 238 243 249 253 253 249 244 250 250 248 268 280 268 263 254 246 270 280 256 235 221 241 276 253 196 195 205 203 206
32 28 27 21 16 10 347 344 346 338 337 334 308 279 269 280 284 296 308 327 40 13 282 288 278 274 273 266 269 273 256 235 236 241 248 255 263 255 238 239 243 251 267 285 282 264 256 243 231 241 214 185 206 234 257 267 244 219 224 232 245 258 265 268 269 268 275 295 297 280 279 257 255 262 244 260 275 277 266 234 210 247 266 224 203 213 212 209
42 39 27 15 5 343 334 344 348 345 341 326 294 272 269 276 282 300 334 345 352 331 317 326 309 279 269 256 258 267 238 239 257 254 246 248 252 253 249 250 256 265 273 269 261 256 261 259 237 248 240 203 204 224 245 266 269 254 242 234 238 253 266 275 280 288 296 303 296 280 267 253 254 261 259 269 277 274 278 273 227 222 244 242 226 225 226 222
56 47 30 27 0 323 330 338 333 333 327 310 290 281 288 314 325 330 10 351 322 328 325 311 297 277 273 266 255 220 145 235 292 282 250 254 256 250 241 232 240 248 251 261 269 270 267 267 279 275 253 219 220 238 242 250 260 272 263 255 251 247 250 264 278 287 288 279 273 263 259 264 264 254 245 253 262 259 266 274 261 238 224 222 229 232 240 247
43 16 352 19 351 325 332 327 321 323 311 295 285 290 298 328 353 351 12 354 320 315 308 295 300 296 295 305 294 278 176 212 274 274 256 257 261 270 265 252 237 243 249 268 271 279 287 279 282 282 268 237 231 244 249 251 256 263 262 269 281 270 257 250 258 265 258 258 266 259 256 260 260 262 251 247 250 255 263 258 248 243 225 212 210 214 228 242
12 309 271 327 348 337 324 313 320 315 297 283 267 263 278 307 10 17 3 349 319 306 302 292 296 305 308 314 302 296 287 244 254 265 272 268 274 314 306 297 273 264 287 301 284 287 296 282 274 267 267 259 242 242 247 244 244 256 273 280 281 273 267 250 248 260 258 259 266 263 263 262 254 258 266 264 262 267 283 288 270 259 249 231 216 212 218 227
343 280 244 235 336 336 320 306 315 299 282 279 274 266 291 308 357 24 355 341 323 307 301 294 295 305 307 301 297 297 296 293 291 285 281 282 286 313 308 311 233 240 283 291 281 295 291 278 277 266 269 279 268 256 260 256 250 255 264 268 264 267 276 271 259 256 256 260 265 265 265 261 257 264 269 276 287 290 291 311 308 281 268 258 245 229 220 220
294 272 229 33 340 337 329 306 294 281 266 272 285 299 323 324 355 7 350 343 327 309 299 304 309 310 306 301 297 298 298 294 291 283 280 297 292 225 192 80 317 260 270 271 270 288 283 269 273 273 277 280 266 248 253 256 257 254 255 262 259 259 283 295 279 269 267 266 266 269 267 259 264 287 290 293 315 326 308 305 300 278 264 259 263 259 238 229
291 270 6 10 343 337 325 289 270 271 278 289 299 318 342 352 335 320 314 288 284 289 290 297 298 296 301 300 296 296 291 286 285 280 275 281 277 256 95 53 349 301 299 284 277 302 304 284 284 283 279 269 262 266 273 273 272 266 262 268 265 262 281 289 274 273 276 273 271 271 271 273 281 303 312 313 318 325 323 320 311 305 307 301 287 273 249 242
294 272 4 346 344 346 322 287 269 267 278 303 329 328 339 357 309 301 305 289 278 284 285 285 287 290 292 288 290 293 289 288 286 284 285 282 282 316 52 36 354 348 326 285 294 34 15 300 282 280 271 269 273 275 279 281 282 276 264 263 267 265 263 257 258 263 260 265 271 271 269 269 274 289 310 320 315 324 339 337 322 318 337 356 334 313 295 275
317 336 337 324 345 349 309 285 291 285 291 344 344 313 311 314 293 295 301 286 285 295 291 293 299 295 291 291 293 292 293 296 290 290 293 287 295 64 75 26 6 357 299 277 310 37 6 278 266 277 272 272 274 270 267 264 266 269 265 263 265 271 287 289 286 285 272 266 268 264 265 266 273 303 321 329 326 332 342 337 331 327 332 350 352 340 332 321
317 320 310 325 359 348 307 305 325 318 327 331 320 309 308 297 282 286 293 296 313 316 299 299 301 295 290 293 292 290 292 293 285 289 288 281 284 99 95 20 8 323 354 25 11 16 339 278 279 287 283 280 274 266 262 255 257 283 294 289 287 297 308 302 294 295 280 268 269 264 265 271 288 309 310 312 317 318 319 319 322 324 322 328 342 338 324 313
312 302 316 347 350 331 307 331 329 315 322 320 316 315 307 294 281 267 277 299 303 292 284 281 286 290 291 288 286 283 284 283 281 281 283 286 279 253 250 188 160 26 84 85 40 355 310 283 290 279 271 277 273 266 287 310 332 323 307 305 303 296 294 291 287 281 267 266 272 270 271 281 291 295 295 299 307 307 311 316 318 318 316 317 321 322 314 304
321 315 345 340 331 314 288 313 321 312 321 327 327 312 300 298 298 273 218 286 292 284 286 287 287 290 286 284 288 286 280 278 281 279 277 276 269 270 269 225 198 164 125 116 49 344 295 277 276 268 265 269 272 280 303 319 314 296 292 292 288 282 283 286 279 269 272 279 276 266 273 288 293 292 292 296 301 303 307 312 313 312 311 309 307 304 301 299
329 337 355 342 327 316 312 324 335 336 323 322 314 296 296 299 302 296 155 238 292 298 292 285 284 280 274 278 285 287 285 279 277 283 283 279 275 278 279 268 248 180 149 166 198 183 258 260 258 264 268 270 274 281 289 296 289 285 288 284 280 278 276 272 268 272 282 286 278 274 278 281 285 287 287 289 293 299 303 303 304 302 297 295 294 293 291 288
354 344 350 2 325 306 320 333 338 328 309 302 290 284 291 291 292 290 249 259 278 289 298 289 280 280 280 277 268 264 276 279 279 285 285 285 286 282 282 284 282 281 277 265 224 196 255 268 258 263 265 266 270 275 278 281 279 278 278 274 272 272 269 269 274 277 280 277 276 285 284 275 274 277 278 283 289 294 296 296 295 291 287 285 283 283 284 280
4 341 342 8 323 292 293 306 315 311 298 291 290 289 292 289 285 286 290 291 283 280 294 291 281 282 281 277 277 275 273 275 282 284 282 289 294 290 295 296 293 298 298 283 252 242 266 266 256 260 266 269 270 275 278 280 280 279 276 271 269 270 275 279 277 273 272 269 268 277 281 277 271 270 276 286 293 295 294 290 286 282 281 283 282 281 281 279
4 345 334 337 313 295 292 285 283 292 290 282 270 262 267 273 281 297 302 306 305 295 292 289 287 288 284 283 291 295 302 322 324 309 304 313 307 286 281 288 289 286 282 281 282 262 238 245 255 258 268 272 272 277 279 276 276 275 270 267 270 278 282 278 274 273 271 269 270 277 280 277 275 280 288 292 292 292 289 286 286 288 289 289 287 286 283 280
357 335 320 315 305 308 310 293 278 281 285 287 278 268 281 297 307 312 306 307 311 300 285 289 298 298 296 297 290 288 344 9 344 319 316 312 294 280 273 276 282 278 270 275 285 270 250 259 266 266 272 271 272 276 275 276 278 272 266 267 270 272 271 269 269 270 268 269 276 279 276 274 281 290 292 289 288 290 293 298 306 314 313 308 306 304 299 296
355 338 324 315 298 296 300 291 284 280 284 343 328 302 310 323 316 309 303 301 293 280 278 302 308 293 288 295 284 283 336 354 326 311 307 291 278 274 270 269 271 274 277 277 276 272 268 266 262 262 268 271 274 275 279 286 281 268 267 272 265 260 264 266 263 259 258 259 263 265 264 269 281 289 289 288 289 290 295 307 317 317 311 308 308 308 305 302
Height
1494 1493 1493 1492 1491 1491 1490 1489 1488 1488 1487 1487 1487 1487 1487 1487 1487 1488 1489 1490 1491 1491 1492 1493 1493 1494 1494 1494 1494 1493 1493 1492 1492 1492 1492 1491 1492 1493 1493 1493 1493 1494 1494 1495 1495 1497 1497 1498 1498 1499 1499 1498 1497 1495 1494 1493 1491 1490 1490 1493 1492 1486 1479 1471 1465 1462 1460 1462 1467 1468 1469 1471 1474 1477 1477 1480 1482 1483 1486 1488 1491 1493 1495 1497 1498 1501 1502 1504
1494 1493 1493 1492 1492 1491 1490 1490 1489 1488 1487 1487 1487 1487 1487 1487 1487 1488 1489 1490 1491 1492 1492 1493 1493 1494 1494 1494 1493 1493 1492 1492 1491 1491 1491 1491 1491 1492 1492 1492 1493 1493 1494 1494 1495 1496 1497 1497 1497 1497 1497 1496 1494 1493 1492 1490 1489 1488 1487 1491 1489 1480 1472 1464 1461 1460 1460 1464 1468 1468 1471 1472 1472 1476 1479 1482 1483 1483 1487 1488 1492 1494 1496 1499 1500 1502 1503 1504
1494 1493 1493 1492 1492 1491 1491 1490 1489 1489 1488 1487 1487 1487 1487 1487 1487 1488 1489 1490 1491 1492 1492 1493 1493 1493 1494 1493 1493 1493 1492 1492 1491 1489 1488 1489 1490 1491 1491 1491 1491 1492 1493 1493 1495 1496 1496 1495 1495 1496 1495 1494 1491 1490 1490 1487 1487 1487 1487 1488 1483 1474 1469 1462 1462 1466 1466 1466 1466 1469 1472 1472 1473 1476 1479 1482 1481 1482 1486 1487 1490 1493 1495 1498 1500 1502 1503 1504
1494 1493 1493 1492 1492 1492 1491 1491 1490 1489 1488 1488 1488 1487 1487 1487 1488 1488 1489 1490 1491 1492 1492 1493 1493 1493 1493 1493 1493 1493 1493 1492 1489 1486 1487 1488 1489 1490 1490 1490 1490 1491 1491 1492 1494 1495 1495 1494 1494 1494 1493 1491 1488 1487 1485 1484 1485 1484 1485 1484 1475 1470 1469 1464 1464 1469 1471 1470 1470 1472 1473 1473 1474 1476 1479 1480 1481 1482 1483 1483 1486 1489 1492 1496 1499 1501 1503 1505
1494 1493 1493 1493 1492 1492 1491 1491 1490 1490 1489 1489 1488 1488 1488 1488 1488 1489 1489 1490 1491 1492 1492 1493 1493 1493 1493 1493 1494 1493 1494 1492 1487 1485 1486 1488 1489 1489 1489 1489 1490 1490 1491 1492 1494 1494 1494 1493 1492 1492 1491 1488 1485 1484 1482 1481 1482 1482 1481 1479 1472 1469 1470 1468 1468 1470 1472 1474 1473 1474 1475 1475 1475 1477 1478 1480 1480 1481 1480 1479 1482 1485 1489 1494 1498 1501 1503 1505
1494 1493 1493 1493 1492 1492 1492 1491 1491 1490 1489 1489 1489 1488 1488 1488 1489 1489 1490 1490 1491 1492 1492 1493 1493 1493 1493 1493 1494 1494 1494 1490 1486 1487 1487 1488 1489 1488 1489 1489 1489 1490 1491 1492 1493 1494 1493 1492 1491 1490 1489 1487 1483 1481 1480 1479 1480 1481 1478 1474 1473 1472 1472 1473 1474 1475 1476 1476 1474 1475 1476 1475 1476 1478 1479 1480 1479 1480 1481 1480 1482 1485 1489 1495 1498 1501 1503 1505
1494 1493 1493 1493 1493 1492 1492 1491 1491 1490 1490 1489 1489 1488 1488 1488 1489 1489 1490 1490 1491 1491 1492 1492 1492 1492 1493 1493 1494 1494 1493 1489 1486 1487 1487 1488 1488 1488 1489 1489 1489 1490 1490 1491 1492 1492 1492 1491 1489 1487 1487 1485 1482 1478 1478 1478 1477 1479 1477 1472 1472 1472 1473 1476 1478 1479 1480 1478 1475 1476 1477 1475 1477 1480 1480 1480 1479 1481 1484 1485 1487 1489 1492 1496 1499 1501 1503 1505
1494 1494 1493 1493 1493 1493 1492 1492 1491 1491 1490 1490 1489 1489 1489 1489 1489 1489 1490 1490 1491 1491 1492 1492 1492 1492 1493 1493 1494 1493 1491 1488 1486 1486 1487 1488 1488 1488 1489 1489 1490 1490 1490 1491 1491 1491 1490 1489 1488 1486 1484 1481 1478 1475 1474 1476 1476 1477 1477 1473 1471 1472 1474 1477 1480 1481 1481 1479 1478 1479 1479 1478 1479 1480 1479 1480 1480 1482 1485 1488 1490 1492 1494 1497 1499 1501 1503 1505
1495 1494 1494 1494 1493 1493 1493 1492 1492 1491 1491 1490 1490 1489 1489 1489 1489 1490 1490 1490 1491 1491 1492 1492 1492 1492 1493 1493 1494 1492 1487 1486 1486 1486 1487 1487 1488 1489 1489 1489 1490 1490 1491 1491 1491 1490 1489 1487 1485 1484 1482 1477 1475 1473 1471 1475 1476 1475 1476 1473 1471 1474 1475 1477 1480 1481 1481 1480 1480 1481 1482 1480 1480 1480 1481 1481 1480 1481 1485 1489 1490 1492 1495 1497 1499 1501 1503 1505
1496 1495 1495 1494 1494 1494 1493 1493 1492 1492 1491 1491 1490 1490 1490 1490 1490 1490 1490 1491 1491 1492 1492 1492 1492 1493 1493 1494 1495 1491 1486 1486 1486 1486 1487 1487 1489 1489 1489 1490 1491 1491 1491 1490 1490 1489 1487 1485 1483 1482 1481 1477 1476 1473 1471 1475 1475 1473 1474 1472 1472 1475 1475 1478 1480 1479 1481 1481 1480 1482 1482 1480 1479 1482 1484 1482 1481 1482 1485 1488 1490 1491 1494 1496 1499 1501 1502 1504
1496 1496 1495 1495 1495 1494 1494 1493 1493 1492 1492 1491 1491 1490 1490 1490 1490 1490 1491 1491 1491 1492 1492 1492 1492 1493 1494 1494 1494 1490 1487 1488 1487 1487 1488 1488 1489 1490 1490 1490 1491 1491 1490 1489 1489 1488 1487 1486 1484 1483 1481 1478 1476 1474 1472 1473 1474 1474 1474 1473 1474 1476 1476 1478 1479 1478 1479 1480 1480 1481 1481 1479 1478 1480 1482 1481 1480 1482 1485 1487 1489 1490 1492 1495 1498 1500 1502 1504
1497 1497 1496 1496 1496 1495 1495 1494 1493 1493 1492 1492 1491 1491 1491 1490 1490 1490 1491 1491 1491 1492 1492 1492 1493 1493 1494 1494 1492 1489 1488 1488 1488 1488 1488 1488 1489 1489 1490 1490 1490 1490 1490 1489 1488 1487 1487 1486 1486 1484 1481 1480 1478 1474 1473 1472 1474 1475 1475 1477 1476 1475 1477 1478 1477 1477 1479 1479 1479 1481 1484 1482 1478 1477 1478 1478 1478 1481 1485 1487 1487 1489 1492 1494 1497 1500 1502 1503
1498 1498 1497 1497 1496 1496 1496 1495 1494 1493 1493 1492 1491 1491 1491 1490 1490 1490 1491 1491 1491 1492 1492 1492 1493 1493 1494 1492 1488 1488 1489 1488 1488 1489 1488 1489 1489 1489 1490 1490 1490 1490 1489 1488 1487 1487 1487 1487 1486 1485 1482 1480 1478 1476 1475 1472 1476 1477 1475 1477 1477 1476 1477 1474 1474 1476 1477 1478 1477 1483 1491 1485 1475 1473 1474 1476 1478 1482 1485 1486 1486 1488 1490 1493 1496 1499 1500 1502
1499 1499 1498 1498 1497 1497 1496 1495 1495 1494 1493 1492 1492 1491 1491 1490 1491 1490 1491 1491 1491 1492 1492 1493 1493 1493 1494 1490 1487 1487 1488 1488 1488 1488 1488 1489 1489 1489 1489 1489 1489 1489 1489 1488 1487 1487 1487 1487 1486 1485 1482 1480 1477 1477 1476 1474 1476 1476 1475 1477 1477 1479 1474 1466 1469 1473 1475 1477 1477 1483 1492 1484 1472 1467 1468 1472 1477 1481 1484 1484 1485 1487 1489 1492 1494 1497 1499 1501
1500 1499 1499 1499 1498 1498 1497 1496 1495 1494 1494 1493 1492 1492 1491 1491 1491 1491 1492 1491 1492 1492 1492 1492 1492 1493 1492 1488 1486 1486 1486 1487 1487 1487 1487 1488 1488 1488 1488 1489 1489 1488 1489 1488 1488 1487 1487 1486 1486 1484 1481 1478 1477 1478 1477 1475 1475 1475 1480 1480 1475 1478 1472 1459 1463 1470 1473 1476 1475 1481 1488 1482 1470 1461 1461 1470 1477 1480 1482 1483 1484 1486 1488 1491 1493 1496 1498 1499
1501 1500 1500 1499 1499 1498 1497 1497 1496 1495 1494 1493 1493 1492 1492 1492 1491 1491 1491 1491 1492 1492 1492 1493 1492 1493 1491 1486 1484 1484 1485 1485 1485 1486 1487 1487 1487 1487 1487 1488 1488 1488 1488 1487 1487 1487 1486 1486 1484 1482 1479 1477 1478 1479 1477 1478 1476 1474 1479 1481 1474 1473 1470 1461 1463 1466 1468 1472 1473 1478 1483 1478 1469 1463 1464 1472 1476 1479 1480 1481 1483 1485 1486 1489 1492 1494 1496 1498
1502 1501 1500 1500 1500 1499 1498 1497 1496 1495 1494 1494 1493 1493 1493 1492 1492 1492 1491 1492 1492 1491 1492 1492 1493 1494 1489 1485 1484 1483 1484 1484 1484 1485 1486 1486 1486 1486 1487 1487 1487 1487 1487 1487 1487 1486 1485 1485 1484 1482 1480 1478 1476 1477 1482 1485 1480 1474 1473 1476 1472 1468 1467 1465 1465 1464 1464 1470 1472 1474 1479 1477 1471 1468 1471 1474 1476 1479 1479 1480 1482 1483 1485 1488 1490 1493 1494 1496
1502 1502 1501 1501 1500 1499 1499 1498 1497 1496 1495 1494 1494 1493 1493 1492 1492 1492 1492 1492 1492 1492 1493 1491 1493 1494 1487 1482 1483 1482 1482 1484 1484 1485 1485 1485 1486 1486 1486 1486 1486 1486 1485 1485 1485 1484 1484 1482 1481 1480 1479 1480 1477 1478 1485 1484 1477 1474 1472 1473 1472 1468 1466 1464 1463 1462 1464 1469 1472 1474 1477 1475 1471 1470 1471 1473 1476 1478 1478 1479 1480 1482 1485 1487 1489 1491 1492 1494
1503 1502 1502 1501 1501 1500 1499 1499 1498 1496 1496 1495 1494 1493 1493 1492 1492 1492 1492 1492 1492 1491 1490 1488 1489 1489 1482 1479 1481 1482 1482 1483 1483 1484 1484 1484 1485 1485 1485 1485 1485 1484 1484 1483 1482 1481 1481 1481 1481 1482 1480 1479 1476 1475 1478 1475 1473 1475 1473 1471 1470 1468 1465 1461 1461 1462 1463 1470 1474 1475 1476 1474 1471 1470 1468 1470 1474 1477 1478 1479 1480 1481 1483 1485 1488 1489 1490 1492
1503 1502 1502 1502 1501 1500 1500 1499 1498 1497 1496 1495 1494 1493 1493 1492 1491 1490 1491 1491 1490 1487 1485 1484 1484 1482 1479 1478 1481 1482 1482 1483 1483 1483 1483 1483 1485 1485 1484 1485 1484 1483 1482 1480 1479 1478 1479 1481 1482 1481 1478 1475 1472 1471 1472 1473 1474 1476 1474 1473 1470 1466 1464 1461 1463 1465 1465 1471 1474 1473 1475 1473 1471 1470 1466 1467 1471 1474 1477 1478 1478 1479 1481 1483 1485 1487 1488 1490
1503 1503 1502 1502 1501 1501 1500 1499 1499 1498 1497 1495 1495 1493 1493 1492 1491 1490 1491 1489 1486 1484 1483 1482 1482 1480 1478 1479 1480 1481 1481 1482 1481 1482 1482 1483 1483 1483 1482 1483 1482 1482 1481 1478 1477 1477 1479 1483 1480 1475 1473 1473 1472 1471 1472 1475 1476 1477 1477 1477 1473 1470 1467 1463 1466 1468 1468 1475 1475 1472 1475 1475 1472 1470 1467 1466 1468 1471 1474 1476 1477 1478 1479 1481 1482 1484 1486 1488
1503 1502 1502 1502 1501 1501 1500 1500 1499 1498 1497 1496 1495 1494 1493 1494 1493 1492 1492 1488 1483 1483 1483 1481 1481 1480 1480 1480 1480 1481 1480 1478 1479 1480 1481 1482 1482 1481 1479 1480 1480 1479 1478 1476 1477 1480 1483 1483 1477 1471 1471 1472 1474 1474 1474 1475 1477 1479 1478 1479 1478 1474 1470 1467 1467 1467 1468 1475 1477 1475 1478 1477 1472 1470 1467 1465 1465 1467 1470 1472 1475 1477 1478 1479 1480 1482 1484 1486
1503 1502 1502 1501 1501 1501 1500 1500 1499 1498 1497 1496 1495 1495 1495 1494 1494 1493 1492 1488 1482 1480 1481 1480 1480 1479 1479 1480 1480 1480 1479 1475 1474 1477 1480 1481 1480 1479 1477 1477 1477 1475 1475 1474 1477 1482 1482 1477 1471 1470 1472 1474 1474 1475 1477 1478 1480 1481 1481 1482 1480 1474 1472 1472 1470 1470 1470 1474 1477 1477 1479 1477 1472 1468 1465 1464 1463 1463 1466 1469 1472 1475 1477 1478 1479 1481 1482 1484
1502 1502 1502 1501 1500 1500 1499 1499 1499 1498 1497 1495 1495 1496 1495 1495 1494 1492 1491 1487 1481 1478 1478 1478 1477 1477 1476 1478 1479 1479 1477 1474 1471 1472 1477 1480 1478 1478 1477 1474 1473 1473 1471 1469 1472 1478 1477 1471 1469 1471 1474 1474 1476 1477 1479 1482 1483 1482 1481 1482 1479 1473 1473 1474 1474 1474 1474 1476 1477 1480 1485 1479 1471 1469 1465 1461 1462 1463 1464 1466 1469 1472 1475 1477 1478 1479 1480 1481
1502 1502 1501 1500 1501 1499 1499 1499 1497 1497 1496 1495 1496 1496 1496 1495 1493 1492 1491 1489 1483 1477 1476 1478 1477 1476 1476 1477 1479 1477 1476 1475 1473 1473 1476 1478 1478 1476 1475 1473 1473 1473 1470 1466 1469 1473 1471 1469 1470 1473 1474 1475 1478 1478 1478 1483 1486 1484 1479 1477 1477 1474 1473 1474 1475 1477 1481 1483 1475 1478 1493 1485 1466 1463 1463 1460 1461 1463 1464 1464 1465 1468 1471 1473 1475 1476 1478 1479
1501 1501 1500 1500 1500 1499 1499 1498 1497 1497 1496 1496 1496 1495 1496 1495 1493 1493 1491 1491 1488 1477 1474 1478 1476 1476 1476 1477 1477 1477 1476 1472 1471 1475 1476 1477 1477 1476 1475 1472 1471 1471 1467 1465 1466 1465 1466 1468 1471 1473 1474 1475 1478 1479 1477 1478 1484 1486 1477 1470 1470 1472 1474 1477 1477 1480 1487 1485 1471 1472 1491 1489 1468 1459 1457 1456 1459 1460 1461 1463 1463 1464 1466 1468 1470 1472 1475 1477
1501 1501 1500 1500 1499 1499 1499 1498 1498 1497 1496 1497 1496 1496 1496 1494 1493 1492 1493 1499 1494 1476 1471 1474 1474 1475 1475 1475 1475 1475 1477 1473 1471 1475 1475 1476 1477 1477 1477 1471 1469 1469 1465 1468 1471 1464 1462 1468 1471 1473 1474 1476 1479 1478 1475 1474 1480 1482 1474 1469 1469 1468 1473 1477 1479 1482 1483 1479 1473 1471 1478 1486 1479 1464 1453 1452 1456 1457 1457 1460 1461 1462 1463 1464 1466 1468 1471 1474
1501 1501 1500 1500 1499 1499 1498 1498 1498 1497 1497 1497 1496 1496 1495 1493 1494 1491 1496 1507 1494 1471 1469 1471 1473 1475 1474 1475 1475 1473 1474 1474 1474 1474 1474 1476 1476 1476 1477 1471 1468 1467 1463 1470 1475 1467 1463 1467 1471 1473 1476 1477 1476 1473 1471 1472 1476 1475 1470 1470 1470 1467 1471 1475 1479 1481 1478 1480 1484 1474 1470 1483 1483 1465 1453 1451 1450 1453 1455 1457 1458 1459 1461 1462 1463 1466 1468 1471
1501 1500 1500 1500 1499 1499 1499 1498 1498 1498 1498 1496 1495 1496 1493 1493 1494 1491 1499 1506 1485 1468 1470 1471 1472 1475 1473 1473 1474 1472 1471 1471 1473 1473 1473 1475 1475 1474 1474 1471 1468 1466 1463 1466 1469 1467 1465 1467 1469 1472 1475 1476 1472 1468 1466 1468 1471 1470 1469 1471 1471 1470 1472 1476 1479 1479 1478 1483 1486 1473 1467 1478 1477 1460 1453 1451 1447 1450 1453 1453 1455 1456 1460 1461 1462 1464 1466 1468
1501 1500 1500 1500 1499 1499 1499 1498 1498 1498 1497 1496 1495 1494 1492 1493 1495 1499 1509 1501 1478 1469 1471 1470 1470 1471 1471 1471 1471 1470 1469 1469 1469 1472 1473 1473 1474 1474 1473 1471 1470 1468 1466 1465 1467 1467 1464 1465 1468 1470 1471 1471 1468 1464 1463 1464 1467 1469 1472 1474 1474 1474 1473 1476 1477 1477 1485 1488 1480 1469 1462 1470 1475 1461 1450 1447 1444 1446 1449 1449 1451 1453 1456 1459 1460 1462 1464 1465
1500 1500 1500 1499 1499 1499 1499 1499 1499 1498 1497 1496 1494 1493 1494 1493 1494 1504 1506 1487 1473 1473 1470 1468 1468 1466 1467 1466 1467 1468 1467 1466 1466 1469 1472 1472 1472 1473 1472 1472 1472 1473 1472 1470 1469 1467 1465 1466 1468 1468 1469 1468 1466 1465 1463 1464 1466 1469 1473 1476 1479 1478 1475 1480 1479 1480 1494 1494 1476 1465 1458 1464 1475 1464 1448 1444 1442 1444 1446 1447 1449 1451 1452 1455 1457 1459 1461 1463
1500 1500 1500 1499 1499 1499 1499 1499 1498 1497 1496 1494 1494 1493 1493 1495 1495 1496 1487 1474 1476 1476 1469 1470 1468 1465 1466 1464 1464 1465 1463 1463 1463 1465 1468 1468 1469 1470 1471 1471 1471 1477 1479 1473 1469 1467 1465 1463 1462 1464 1467 1466 1468 1468 1466 1466 1467 1471 1474 1478 1486 1487 1484 1488 1487 1485 1491 1486 1470 1462 1459 1464 1466 1456 1447 1446 1444 1445 1446 1447 1449 1449 1449 1451 1454 1457 1458 1461
1501 1500 1500 1500 1499 1499 1499 1498 1497 1497 1496 1494 1495 1492 1491 1499 1497 1484 1474 1471 1475 1473 1469 1470 1468 1466 1467 1466 1464 1461 1460 1464 1464 1464 1463 1463 1465 1466 1466 1464 1464 1471 1473 1469 1471 1472 1469 1463 1458 1461 1463 1463 1467 1469 1470 1467 1467 1472 1474 1478 1487 1490 1494 1495 1489 1485 1483 1475 1466 1461 1463 1469 1464 1451 1447 1447 1445 1443 1443 1446 1450 1449 1449 1450 1452 1455 1457 1459
1501 1500 1500 1500 1499 1499 1498 1498 1497 1496 1495 1494 1494 1491 1494 1502 1492 1476 1472 1471 1469 1469 1468 1467 1467 1467 1467 1466 1463 1457 1459 1465 1462 1462 1464 1464 1467 1467 1464 1463 1461 1463 1464 1468 1473 1473 1477 1474 1463 1460 1460 1460 1462 1465 1466 1463 1463 1466 1465 1470 1478 1480 1488 1492 1487 1486 1483 1476 1471 1466 1469 1474 1467 1454 1446 1444 1443 1442 1442 1443 1447 1450 1450 1450 1452 1455 1457 1458
1501 1500 1501 1499 1499 1499 1498 1498 1497 1496 1496 1494 1492 1491 1495 1496 1485 1476 1477 1473 1469 1470 1468 1466 1467 1469 1466 1463 1459 1455 1461 1466 1460 1460 1464 1466 1468 1468 1466 1465 1462 1462 1466 1473 1473 1469 1474 1472 1459 1456 1455 1455 1460 1461 1460 1462 1464 1461 1456 1463 1472 1471 1475 1481 1480 1480 1480 1482 1479 1472 1469 1463 1456 1450 1444 1444 1443 1442 1443 1442 1443 1448 1449 1451 1453 1454 1456 1457
1501 1501 1501 1500 1500 1500 1498 1499 1497 1496 1496 1494 1493 1493 1489 1484 1478 1475 1477 1476 1474 1473 1473 1472 1470 1469 1467 1460 1456 1456 1462 1467 1464 1463 1464 1463 1462 1461 1459 1460 1461 1463 1467 1473 1472 1470 1475 1469 1454 1454 1453 1451 1458 1459 1457 1463 1465 1461 1461 1463 1462 1459 1465 1477 1482 1478 1481 1490 1482 1471 1469 1460 1454 1451 1444 1443 1445 1442 1444 1443 1442 1445 1447 1450 1453 1454 1457 1457
1501 1501 1502 1502 1501 1500 1498 1498 1497 1497 1496 1494 1495 1494 1484 1477 1476 1475 1476 1478 1478 1475 1476 1479 1473 1469 1468 1465 1462 1460 1462 1467 1468 1467 1466 1462 1460 1457 1453 1455 1459 1462 1464 1468 1470 1469 1474 1472 1459 1456 1456 1452 1455 1458 1455 1456 1458 1460 1463 1460 1455 1457 1460 1469 1482 1484 1487 1493 1480 1469 1470 1466 1463 1460 1445 1440 1444 1442 1442 1441 1441 1443 1445 1448 1451 1454 1457 1457
1502 1502 1502 1502 1501 1499 1498 1498 1497 1496 1495 1493 1493 1490 1482 1477 1476 1477 1479 1481 1480 1477 1478 1481 1475 1469 1470 1472 1470 1464 1463 1468 1468 1467 1467 1464 1462 1459 1456 1458 1461 1463 1464 1467 1470 1468 1471 1477 1466 1456 1457 1454 1451 1456 1456 1452 1450 1454 1457 1454 1458 1469 1469 1467 1477 1485 1489 1492 1483 1472 1469 1464 1461 1456 1446 1442 1442 1441 1441 1441 1441 1442 1444 1447 1449 1451 1454 1456
1502 1502 1501 1500 1500 1499 1498 1497 1496 1496 1495 1493 1490 1485 1480 1477 1476 1479 1482 1483 1482 1480 1480 1479 1475 1472 1472 1474 1473 1468 1467 1469 1467 1469 1470 1466 1465 1464 1462 1463 1464 1465 1467 1468 1471 1470 1471 1479 1475 1459 1456 1456 1453 1456 1460 1457 1452 1452 1455 1454 1456 1466 1469 1467 1470 1475 1482 1487 1484 1477 1472 1464 1455 1446 1442 1442 1440 1440 1442 1442 1444 1444 1444 1446 1448 1449 1451 1453
1502 1501 1499 1499 1499 1498 1496 1496 1496 1495 1493 1490 1486 1481 1479 1478 1478 1480 1483 1484 1484 1483 1481 1479 1477 1477 1476 1474 1473 1471 1469 1470 1468 1470 1469 1466 1466 1466 1462 1464 1466 1466 1468 1468 1470 1471 1471 1477 1479 1466 1458 1461 1461 1458 1458 1458 1456 1457 1461 1461 1461 1462 1463 1467 1468 1465 1471 1481 1482 1482 1478 1464 1447 1440 1439 1440 1440 1442 1442 1442 1444 1445 1444 1446 1447 1449 1451 1452
1501 1499 1498 1498 1498 1497 1496 1496 1494 1491 1488 1485 1482 1481 1481 1482 1482 1482 1482 1484 1485 1484 1482 1481 1480 1480 1480 1478 1476 1473 1472 1471 1469 1469 1469 1466 1467 1466 1463 1466 1469 1468 1470 1471 1470 1473 1475 1477 1479 1474 1468 1467 1462 1454 1451 1451 1452 1456 1462 1462 1463 1464 1467 1478 1482 1472 1472 1480 1479 1480 1480 1463 1445 1441 1441 1441 1443 1444 1443 1444 1444 1444 1445 1447 1449 1449 1451 1453
1500 1497 1497 1498 1498 1496 1496 1494 1489 1486 1486 1485 1484 1484 1484 1485 1485 1483 1482 1482 1483 1482 1481 1481 1480 1480 1481 1480 1478 1475 1473 1473 1471 1470 1470 1466 1464 1467 1468 1469 1471 1471 1474 1474 1472 1476 1480 1480 1481 1478 1472 1466 1459 1454 1453 1453 1450 1452 1456 1456 1457 1461 1466 1477 1483 1474 1472 1476 1470 1472 1477 1462 1445 1442 1443 1443 1445 1445 1446 1447 1447 1446 1447 1449 1450 1451 1451 1453
1499 1497 1497 1497 1497 1497 1496 1492 1487 1484 1483 1484 1485 1486 1484 1485 1485 1484 1483 1482 1481 1481 1481 1481 1481 1481 1481 1479 1478 1477 1476 1476 1475 1472 1472 1468 1465 1468 1470 1471 1472 1473 1475 1475 1475 1479 1482 1481 1482 1479 1469 1462 1456 1452 1450 1450 1450 1452 1453 1452 1453 1457 1461 1466 1468 1466 1469 1472 1469 1474 1479 1462 1444 1443 1444 1445 1446 1446 1448 1449 1449 1449 1449 1449 1451 1451 1452 1454
1501 1498 1497 1497 1496 1496 1495 1492 1490 1487 1486 1485 1486 1486 1485 1484 1484 1484 1483 1482 1482 1483 1483 1484 1483 1483 1481 1479 1479 1478 1478 1480 1479 1475 1473 1470 1467 1469 1471 1473 1474 1474 1476 1478 1480 1483 1485 1483 1483 1484 1480 1472 1465 1459 1453 1450 1452 1456 1456 1453 1452 1455 1460 1463 1462 1464 1471 1471 1469 1476 1479 1463 1448 1445 1446 1447 1448 1448 1449 1450 1450 1451 1451 1451 1452 1452 1453 1454
1501 1499 1497 1497 1498 1497 1495 1493 1493 1492 1490 1489 1489 1489 1487 1485 1483 1484 1485 1485 1485 1485 1485 1485 1484 1483 1481 1480 1480 1479 1478 1480 1480 1477 1474 1471 1468 1468 1469 1472 1474 1475 1477 1481 1482 1484 1487 1485 1485 1488 1490 1485 1479 1471 1462 1458 1459 1462 1460 1457 1457 1458 1460 1462 1464 1469 1473 1469 1466 1472 1473 1461 1451 1448 1448 1449 1450 1450 1450 1451 1452 1452 1453 1453 1453 1453 1453 1453
1503 1501 1500 1499 1498 1495 1494 1493 1493 1493 1492 1493 1494 1492 1489 1486 1484 1483 1485 1487 1486 1485 1485 1485 1484 1484 1483 1482 1483 1482 1480 1479 1479 1476 1474 1473 1470 1468 1467 1469 1471 1473 1476 1479 1481 1483 1486 1486 1485 1486 1484 1480 1475 1468 1461 1462 1467 1467 1464 1461 1460 1459 1459 1462 1467 1470 1469 1467 1466 1466 1465 1462 1457 1452 1450 1450 1452 1453 1453 1453 1454 1454 1454 1454 1453 1454 1453 1452
1505 1504 1504 1504 1501 1496 1494 1493 1493 1494 1494 1495 1496 1493 1490 1489 1487 1485 1486 1487 1487 1486 1487 1486 1485 1486 1485 1484 1486 1486 1483 1479 1478 1477 1476 1473 1470 1468 1468 1469 1469 1471 1473 1475 1478 1483 1486 1487 1485 1483 1480 1474 1471 1467 1465 1467 1468 1467 1465 1463 1460 1458 1459 1462 1466 1465 1465 1469 1470 1462 1459 1464 1462 1454 1451 1451 1453 1455 1455 1455 1456 1455 1454 1454 1453 1453 1452 1451
1508 1507 1507 1508 1506 1502 1498 1497 1496 1497 1496 1495 1494 1492 1491 1491 1490 1488 1486 1485 1485 1486 1488 1489 1487 1486 1485 1484 1485 1486 1485 1483 1481 1481 1479 1477 1474 1472 1472 1471 1469 1470 1471 1472 1474 1477 1480 1482 1480 1480 1478 1472 1469 1468 1467 1467 1466 1463 1463 1461 1458 1457 1459 1461 1462 1461 1462 1468 1468 1460 1458 1462 1460 1454 1450 1450 1452 1455 1455 1455 1456 1454 1453 1452 1451 1450 1450 1449
1511 1510 1508 1509 1509 1505 1501 1500 1500 1499 1497 1494 1493 1492 1492 1492 1491 1489 1485 1483 1484 1486 1488 1491 1489 1486 1484 1483 1483 1483 1485 1486 1486 1485 1482 1481 1481 1479 1479 1477 1474 1473 1473 1471 1471 1474 1477 1478 1478 1477 1475 1470 1468 1467 1466 1465 1465 1464 1461 1457 1454 1455 1457 1458 1459 1458 1459 1462 1460 1457 1458 1458 1454 1450 1448 1448 1451 1453 1453 1453 1452 1451 1449 1448 1448 1447 1447 1446
1515 1514 1512 1511 1509 1504 1501 1500 1500 1498 1495 1494 1494 1493 1492 1490 1489 1489 1487 1486 1488 1487 1488 1491 1489 1485 1483 1482 1483 1484 1484 1485 1488 1487 1485 1486 1486 1484 1483 1481 1477 1476 1475 1473 1472 1473 1476 1478 1474 1474 1474 1470 1467 1468 1467 1465 1466 1464 1459 1453 1453 1456 1458 1458 1458 1457 1458 1459 1456 1458 1460 1455 1448 1446 1448 1449 1449 1449 1449 1449 1448 1446 1446 1446 1445 1444 1443 1443
1517 1517 1515 1514 1509 1505 1502 1499 1497 1496 1494 1492 1491 1489 1488 1488 1488 1489 1489 1490 1491 1491 1490 1491 1490 1487 1487 1485 1484 1485 1485 1488 1490 1488 1487 1488 1488 1486 1484 1482 1480 1478 1475 1475 1475 1473 1474 1475 1472 1473 1476 1470 1466 1469 1467 1463 1464 1461 1455 1453 1457 1459 1458 1457 1457 1457 1458 1459 1458 1460 1460 1454 1447 1446 1449 1449 1447 1447 1446 1446 1445 1445 1446 1445 1444 1443 1441 1441
1517 1516 1516 1515 1510 1506 1503 1499 1495 1495 1494 1492 1491 1489 1489 1491 1491 1492 1493 1492 1492 1491 1490 1490 1491 1490 1490 1489 1486 1485 1486 1490 1491 1490 1489 1488 1486 1485 1484 1482 1481 1479 1476 1476 1477 1474 1473 1473 1472 1475 1476 1468 1466 1468 1465 1465 1467 1460 1451 1452 1455 1455 1454 1454 1453 1452 1452 1455 1457 1457 1454 1450 1448 1447 1447 1447 1446 1445 1444 1445 1446 1445 1445 1444 1444 1442 1441 1440